Regional Weather Roundup
Issued by NWS

Home | Current Version | Previous Version | Graphics & Text | Print | Product List | Glossary Off
Versions: 1 2 3 4 5 6 7 8 9 10 11 12 13 14 15 16 17 18 19 20 21 22 23 24 25 26 27 28 29 30 31 32 33 34 35 36 37 38 39 40 41 42 43 44 45 46 47 48 49 50

000
ASUS43 KDTX 231910
RWRMI
MICHIGAN HOURLY REGIONAL WEATHER ROUNDUP
NATIONAL WEATHER SERVICE DETROIT/PONTIAC MI
300 PM EDT SAT SEP 23 2017

NOTE: "FAIR" INDICATES FEW OR NO CLOUDS BELOW 12,000 FEET WITH NO
SIGNIFICANT WEATHER AND/OR OBSTRUCTION TO VISIBILITY.

MIZ047>049-052>055-059>063-066>070-074>076-081>083-232000-
SOUTHEAST LOWER MICHIGAN

CITY           SKY/WX    TMP DP  RH WIND       PRES   REMARKS
ADRIAN         SUNNY     92  59  33 VRB5      30.14F HX  91
ALMA           SUNNY     93  56  28 SW7       30.11F HX  92
ANN ARBOR      SUNNY     91  58  32 E3        30.13F HX  90
BAD AXE        SUNNY     90  63  40 W7        30.13F HX  90
CARO           SUNNY     92  64  38 SW7       30.12F HX  93
DETROIT CITY   SUNNY     88  62  41 SE6       30.14F
DETROIT        MOSUNNY   90  64  42 SE8       30.14F HX  91
FLINT          SUNNY     92  63  38 NW5       30.13F HX  93
GROSSE ILE     SUNNY     79  68  68 S6        30.14S
HILLSDALE      SUNNY     90  57  33 SE5       30.15S
HOWELL         SUNNY     92  57  30 S5        30.14F HX  90

CITY           SKY/WX    TMP DP  RH WIND       PRES   REMARKS
JACKSON        SUNNY     93  52  24 E7        30.13F HX  90
LAMBERTVILLE   SUNNY     89  62  41 E5        30.13F
LANSING        SUNNY     92  59  33 VRB5      30.13F HX  91
LAPEER         FAIR      91  61  36 CALM      30.14F HX  90
MASON          SUNNY     92  58  31 E3        30.13F HX  91
MONROE         SUNNY     88  63  43 E5        30.13F
MT. CLEMENS    MOSUNNY   87  67  51 SE6       30.12F
PONTIAC        MOSUNNY   91  61  36 S5        30.13F HX  91
PORT HOPE        N/A     77  71  82 SE3       30.11F
PORT HURON     SUNNY     91  63  38 CALM      30.13F HX  92
TRI CITIES     SUNNY     94  66  39 SW7       30.11F HX  97
MIDLAND        PTSUNNY   93  64  38 N3        30.10F HX  95
TROY           SUNNY     90  60  36 N3        30.15F
SAGINAW HB     SUNNY     90  63  40 S8        30.11F HX  90
$$
MIZ043>046-050>051-056>058-064>065-071>073-077>080-232000-
SOUTHWEST LOWER MICHIGAN

CITY           SKY/WX    TMP DP  RH WIND       PRES   REMARKS
BATTLE CREEK   SUNNY     92  56  29 VRB3      30.13F HX  90
BENTON HARBOR  SUNNY     87  67  51 NW7       30.10S HX  90
BIG RAPIDS     MOSUNNY   90  63  39 W6        30.11F HX  91
COLDWATER      SUNNY     90  56  31 SE3       30.13S
FREMONT        FAIR      92  64  38 S8        30.10F HX  94
HOLLAND        SUNNY     92  65  40 NW8       30.10F HX  94
GRAND RAPIDS   MOSUNNY   94  62  34 S7        30.10F HX  94
IONIA          FAIR      92  60  34 CALM      30.10F HX  91
KALAMAZOO      SUNNY     93  53  25 S7        30.11F HX  90
LUDINGTON      SUNNY     85  66  52 SW7       30.10S
MARSHALL         N/A     91  57  31 MISG      30.12F
MUSKEGON       MOSUNNY   92  66  42 SW9       30.10F HX  94
SOUTH HAVEN    SUNNY     88  65  47 NW8       30.10S
$$
MIZ016>042-232000-
NORTHERN LOWER MICHIGAN

CITY           SKY/WX    TMP DP  RH WIND       PRES   REMARKS
ALPENA         MOSUNNY   91  68  46 W7        30.08F HX  95
BEAVER ISLAND  SUNNY     82  66  57 SW9G16    30.07F
BELLAIRE       SUNNY     90  64  41 SW3       30.08S HX  91
CADILLAC       SUNNY     92  59  33 SW9       30.12F HX  91
CHARLEVOIX     SUNNY     90  63  40 SW8       30.10F HX  90
FRANKFORT      MOSUNNY   84  67  55 SW9       30.09F
GAYLORD        SUNNY     88  62  41 W12       30.12F
GRAYLING       MOSUNNY   89  63  41 W6        30.12F HX  90
HARBOR SPRINGS SUNNY     89  61  39 W7G16     30.07F
HOUGHTON LAKE  SUNNY     90  64  42 SW6       30.13F HX  91
MANISTEE       SUNNY     91  68  46 VRB7      30.08F HX  95
OSCODA         SUNNY     90  67  47 S9        30.09F HX  93
PELLSTON       SUNNY     90  65  43 W9        30.08S HX  92
ROGERS CITY    SUNNY     85  68  56 N6        30.08F
TRAVERSE CITY  MOSUNNY   94  63  35 VRB6      30.06F HX  95
$$
MIZ007>008-015-232000-
EASTERN UPPER MICHIGAN

CITY           SKY/WX    TMP DP  RH WIND       PRES   REMARKS
KINROSS        SUNNY     87  69  54 SW9       30.05F HX  91
MACKINAC ISLAN SUNNY     80  65  59 W12G18    30.07F
NEWBERRY       SUNNY     83  70  65 S14G21    30.02F
S. S. MARIE    SUNNY     89  69  51 S13       30.01F HX  93
MUNISING         N/A     88  71  57 SW14G22   29.97S HX  94
$$
MIZ004>006-011>014-085-232000-
CENTRAL UPPER MICHIGAN

CITY           SKY/WX    TMP DP  RH WIND       PRES   REMARKS
MANISTIQUE     MOSUNNY   73  66  81 SW6       30.04F
ESCANABA       SUNNY     79  69  71 S10       30.02F
MENOMINEE      SUNNY     87  71  58 S9        30.04F HX  93
SAWYER-GWINN   SUNNY     86  66  51 SW18G26   30.02R
$$
MIZ001>003-009>011-084-232000-
WESTERN UPPER MICHIGAN

CITY           SKY/WX    TMP DP  RH WIND       PRES   REMARKS
IRON MOUNTAIN  SUNNY     89  64  43 SW10      30.01F HX  90
HOUGHTON       MOSUNNY   85  70  60 SW7       29.95F
COPPER HARBOR    N/A     78  66  66 N7        29.93F
IRONWOOD       MOSUNNY   85  70  60 SW14G20   29.97F
$$

ABBREVIATIONS USED IN REMARKS
   TC - TEMPERATURE IN CELSIUS
  WCI - WIND CHILL INDEX
   HX - HEAT INDEX
  VSB - VISIBILITY





USA.gov is the U.S. government's official web portal to all federal, state and local government web resources and services.